User: anonymous   Login
Location: Kailua
(21.4020°N, 157.7390°W)
Time: 23:29:25
(UTC-10:00)
Language:

Cosmos 2297 Rocket - Orbit

View from above orbital plane
View from above orbital plane
View from above satellite
View from above satellite

Ground track
Ground track

The orbit data is extracted from the following two-line orbital elements,

1 23405U 94077B   14297.84627998  .00000376  00000-0  21845-3 0  9750
2 23405 070.9839 087.0540 0004080 316.5298 195.1522 14.15115164 28804
Epoch (UTC): 24 October 2014 20:18:38
Eccentricity: 0.0004080
inclination: 70.9839°
perigee height: 839 km
apogee height: 845 km
right ascension of ascending node: 87.0540°
argument of perigee: 316.5298°
revolutions per day: 14.15115164
mean anomaly at epoch: 195.1522°
orbit number at epoch: 2880

The dashed part of the orbit path shows where the satellite is in the earth's shadow,  

DLR